#timestamp,LO_Frequency,Hit,StdDev 
1506787215.4,286047002.9,N
1506787235.2,286047001.8,N
1506787255.1,286046999.8,N
1506787256.0,286046999.8,N
1506787275.8,286047000.6,N
1506787295.6,286047002.8,N
1506787315.5,286046999.1,N
1506787335.3,286046996.8,N
1506787355.1,286046996.8,N
1506787375.9,286046998.9,N
1506787395.7,286046998.4,N
1506787415.5,286047000.4,N
1506787435.4,286046997.6,N
1506787455.2,286046999.5,N
1506787475.0,286046996.9,N
1506787475.9,286046996.9,N
1506787495.8,286046995.7,N
1506787515.6,286046994.8,N
1506787535.4,286046989.3,Y
1506787555.3,286046985.9,P
1506787575.1,286046989.6,N
1506787576.0,286046989.6,N
1506787595.8,286046985.4,N
1506787615.7,286046984.3,N
1506787635.5,286046984.7,N
1506787655.3,286046983.5,Y
1506787675.2,286046994.3,P
1506787695.9,286046991.8,N
1506787715.7,286046992.4,P
1506787735.6,286046992.2,Y
1506787755.4,286047000.1,P
1506787775.2,286047001.1,N
1506787795.0,286046999.0,N
1506787796.0,286046999.0,N
1506787815.8,286047001.2,N
1506787835.6,286046996.5,N
1506787855.4,286047000.5,N
1506787875.3,286046998.4,N
1506787895.1,286047003.0,N
1506787915.8,286047003.3,N
1506787935.7,286047006.0,N
1506787955.5,286047001.5,N
1506787975.3,286046999.7,N
1506787995.2,286047000.8,N
1506788015.9,286046998.5,N
1506788035.7,286047004.3,N
1506788055.6,286047001.6,N
1506788075.4,286046999.8,N
1506788095.2,286047002.7,N
1506788115.1,286046997.0,N
1506788116.0,286046997.0,N
1506788135.8,286046995.4,N
1506788155.6,286046999.6,N
1506788175.4,286046998.9,N
1506788195.3,286046999.1,N
1506788215.1,286046998.4,N
1506788235.8,286046995.4,N
1506788255.7,286046993.9,N
1506788275.5,286046992.6,N
1506788295.3,286046991.2,N
1506788315.2,286046988.6,Y
1506788335.9,286046994.0,P
1506788355.7,286046998.9,N
1506788375.6,286047000.9,N
1506788395.4,286046998.9,N
1506788415.2,286046996.5,N
1506788435.1,286047000.8,N
1506788436.0,286047000.8,N
1506788455.8,286047000.9,N
1506788475.6,286047000.7,N
1506788495.5,286046999.1,N
1506788515.3,286047000.2,N
1506788535.1,286046997.2,N
1506788555.9,286046997.9,N
1506788575.7,286046995.9,N
1506788595.5,286046995.4,N
1506788615.3,286046996.9,N
1506788635.2,286046996.5,N
1506788655.0,286046996.8,N
1506788655.9,286046996.8,N
1506788675.7,286046993.4,Y
1506788695.6,286046994.3,P
1506788715.4,286046991.4,P
1506788735.2,286046992.2,N
1506788755.1,286046992.4,N
1506788756.0,286046992.4,Y
1506788775.8,286046997.1,P
1506788795.6,286046999.9,N
1506788815.5,286046999.8,N
1506788835.3,286046999.1,N
1506788855.1,286046995.4,N
1506788875.9,286046993.7,N
1506788895.7,286046998.0,N
1506788915.5,286046999.5,N
1506788935.4,286046996.5,N
1506788955.2,286046998.3,N
1506788975.0,286047000.6,N
1506788975.9,286047000.6,N
1506788995.8,286047000.3,N
1506789015.6,286047004.0,N
1506789035.4,286047004.1,N
1506789055.3,286047002.3,N
1506789075.1,286046999.9,N
1506789076.0,286046999.9,N
1506789095.8,286047001.2,N
1506789115.7,286046999.0,N
1506789135.5,286046999.1,N
1506789155.3,286047000.9,N
1506789175.1,286046999.0,N
1506789195.9,286046998.7,N
1506789215.7,286046995.4,N
1506789235.5,286046999.1,N
1506789255.4,286046997.0,N
1506789275.2,286046997.2,N
1506789295.0,286046998.5,N
1506789295.9,286046998.5,N
1506789315.8,286046998.8,N
1506789335.6,286046998.2,N
1506789355.4,286047002.3,N
1506789375.3,286046998.2,N
1506789395.1,286046998.3,N
1506789396.0,286046998.3,N
1506789415.8,286046998.6,N
1506789435.6,286046997.0,N
1506789455.5,286046996.3,N
1506789475.3,286046996.1,N
1506789495.1,286046993.8,N
1506789515.9,286046990.3,Y
1506789535.7,286046992.4,P
1506789555.5,286046991.8,N
1506789575.4,286046994.1,N
1506789595.2,286046992.3,N
1506789615.0,286046991.7,Y
1506789616.0,286046991.7,P
1506789635.8,286046997.4,N
1506789655.6,286046996.1,N
1506789675.4,286046996.1,N
1506789695.3,286046991.8,Y
1506789715.1,286046996.5,P
1506789735.8,286046995.0,P
1506789755.7,286046994.2,P
1506789775.5,286046994.2,Y
1506789795.4,286047001.2,P
1506789815.2,286046998.5,N
1506789835.0,286046998.6,N
1506789835.9,286046998.6,N
1506789855.8,286047000.4,N
1506789875.6,286047000.4,N
1506789895.4,286047002.6,N
1506789915.2,286046999.7,N
1506789935.1,286046999.4,N
1506789936.0,286046999.4,N
1506789955.8,286046997.6,N
1506789975.6,286046995.0,N
1506789995.5,286046995.3,N
1506790015.3,286046996.2,N
1506790035.1,286046993.3,Y
1506790055.9,286046999.0,P
1506790075.7,286046996.7,P
1506790095.5,286046995.2,P
1506790115.4,286046994.6,Y
1506790135.2,286046997.6,P
1506790155.0,286046999.5,P
1506790155.9,286046999.5,N
1506790175.8,286046998.6,N
1506790195.6,286046996.3,Y
1506790215.4,286046991.8,P
1506790235.3,286046994.0,N
1506790255.1,286046992.5,N
1506790275.8,286046993.6,N
1506790295.7,286046995.6,N
1506790315.5,286046997.3,N
1506790335.3,286046998.2,N
1506790355.2,286047000.4,N
1506790375.9,286047002.1,N
1506790395.7,286047005.3,N
1506790415.6,286047004.1,N
1506790435.4,286046999.8,N
1506790455.2,286046998.5,N
1506790475.0,286046997.5,N
1506790476.0,286046997.5,N
1506790495.8,286046999.2,N
1506790515.6,286047000.9,N
1506790535.4,286047007.7,N
1506790555.3,286047012.0,N
1506790575.1,286047011.8,N
1506790595.8,286047014.0,N
1506790615.7,286047016.3,N
1506790635.5,286047019.9,N
1506790655.3,286047021.2,N
1506790675.2,286047021.2,N
1506790695.9,286047018.2,N
1506790715.7,286047023.1,N
1506790735.6,286047026.1,N
1506790755.4,286047024.2,N
1506790775.2,286047023.5,N
1506790795.0,286047024.1,N
1506790796.0,286047024.1,N
